Lid_Strength_Index
4 6 7 6 5 6 6 7 7 6 5 6 6 6 5 4 4 5 4 4 4 4 2 2 1 1 1 0 0 0 0 -1 -0 1 1 1 1 1 0 -0 -1 -1 -1 -1
5 7 5 5 5 6 6 7 7 6 5 5 6 6 5 4 4 4 4 4 4 4 3 2 2 2 1 1 1 0 0 -0 -0 0 0 -0 -0 0 0 -0 -1 -1 -1 -2
6 6 5 5 6 6 7 7 7 7 6 5 6 7 6 4 4 4 3 3 3 3 3 3 3 2 1 1 1 1 0 -0 -0 -1 -0 -1 -1 -0 1 1 0 -1 -1 -1
6 4 5 6 6 6 8 6 6 7 7 9 6 10 7 6 5 4 4 4 3 3 3 3 2 3 2 1 1 0 0 0 -0 -1 -0 1 1 2 1 1 0 -0 -1 -1
6 6 6 7 6 5 7 5 6 6 7 8 8 9 7 5 6 5 4 4 4 3 3 3 2 2 2 1 1 1 0 0 -0 -1 -0 0 1 0 1 1 0 -0 -1 -1
5 4 5 5 5 5 5 6 6 6 7 11 8 8 8 7 6 5 5 4 4 3 3 3 2 2 1 1 1 1 1 0 0 0 0 0 1 1 1 1 1 1 0 -0
6 6 5 4 6 5 5 7 10 11 11 12 7 8 8 6 5 5 5 4 4 3 3 3 3 2 2 2 1 1 1 1 0 0 0 0 0 0 1 1 1 1 1 0
8 9 6 5 6 7 7 7 10 13 12 11 8 10 8 5 4 4 4 4 4 3 3 3 2 2 2 2 1 1 1 1 1 1 0 -0 -0 0 0 0 1 0 1 1
8 8 5 5 5 5 7 8 6 9 8 10 9 7 6 5 5 4 4 4 4 4 3 3 2 2 2 2 1 1 1 1 1 1 0 0 0 0 0 -0 -0 -0 -1 0
6 9 6 5 5 5 6 5 9 8 12 13 10 10 8 7 6 5 5 4 4 4 3 3 2 2 2 1 1 1 1 1 1 1 0 0 0 0 -0 -0 -0 -0 -0 0
5 7 7 6 7 7 7 7 7 7 8 11 12 10 6 6 5 5 5 4 4 4 3 3 2 2 2 1 1 1 1 1 1 1 1 0 0 0 -0 0 -0 -1 -1 -1
5 7 9 8 5 5 5 7 7 10 10 9 9 10 5 5 4 4 5 4 4 3 3 3 2 2 2 2 1 1 1 1 1 1 0 0 0 0 0 1 -0 -0 -0 -1
5 8 10 9 7 6 7 6 6 7 7 9 11 10 5 4 5 5 5 4 4 3 3 3 2 2 2 2 1 1 1 1 1 1 1 1 1 1 1 0 -0 -0 -0 -1
5 7 8 10 8 7 8 7 7 7 10 9 9 8 6 6 6 5 5 4 4 4 3 3 3 2 2 2 2 2 1 1 1 1 1 1 1 1 0 0 -0 -0 -0 -0
5 8 7 7 7 7 7 7 7 8 7 9 8 8 6 5 5 5 5 4 4 4 4 3 3 3 2 2 2 1 1 1 1 1 1 1 1 0 0 0 0 -0 -0 -0
5 8 7 9 7 7 8 7 7 7 7 7 7 7 5 4 4 4 5 5 5 4 4 3 3 3 2 2 2 2 1 1 1 1 1 1 1 0 0 0 0 0 0 -0
6 7 9 11 8 8 10 8 7 7 6 6 8 6 4 5 5 5 5 5 5 4 4 3 3 3 2 2 1 2 2 1 1 1 1 1 1 1 1 0 0 1 0 -0
6 7 8 11 9 14 8 5 6 7 6 5 6 6 6 5 5 4 4 4 4 4 4 3 3 2 2 1 1 1 1 1 1 2 1 1 1 1 1 1 1 1 0 1
5 7 9 11 11 9 7 6 7 8 8 6 7 6 5 5 5 5 4 3 3 3 3 3 2 2 2 2 1 1 1 2 2 2 2 1 1 1 1 1 1 1 1 1
5 5 8 9 12 13 8 6 5 5 10 6 6 6 6 5 8 7 4 3 3 2 2 2 2 2 2 1 1 1 2 2 2 2 1 1 1 1 1 1 1 0 0 1
9 9 10 10 11 9 6 5 5 11 10 5 5 5 5 6 5 4 3 3 2 2 2 2 1 2 2 1 1 2 2 2 1 1 1 1 1 1 1 1 1 1 1 1
9 10 10 9 11 12 5 6 9 6 4 4 4 4 4 4 3 3 3 3 2 2 2 2 2 2 1 1 1 2 2 1 1 1 1 1 1 1 1 1 1 1 1 1
10 8 10 9 9 5 4 5 4 3 4 4 4 3 3 4 4 3 3 3 2 2 2 2 2 2 1 1 2 2 1 1 1 2 2 2 1 1 1 1 1 2 1 2
6 5 8 8 6 6 5 4 4 4 4 3 3 3 3 4 3 3 3 2 2 2 2 2 2 2 2 1 1 2 1 1 1 2 2 2 2 2 1 1 1 2 2 2
6 6 8 8 6 6 5 4 4 4 4 3 3 3 3 3 3 3 3 2 2 2 2 2 2 2 2 1 1 1 1 1 2 2 2 2 2 2 2 1 1 1 1 2
6 8 10 11 6 7 6 4 3 4 4 4 4 4 3 3 3 3 3 2 2 2 2 2 2 2 2 2 2 2 1 1 2 2 2 2 2 2 2 2 2 12 11 13